Todos
Luftsportverein Lüneburg e.V. Airport EDHG Condições meteorológicas
There is no TAF data available at EDHG or any nearby airports.
There is no METAR data available at EDHG. Showing METAR data for ETHS (25 mi SO).
Histórico recente de METAR ETHS (sem dados para EDHG)
| Date | Time (CEST) | Flight Rules | Wind Dir. | Speed | Type | Height AGL (ft) | Visibility | Temp (°C) | Temp (°F) | Dew Point (°C) | Dew Point (°F) | Rel. Humid. | Pressure | Density Altitude | Remarks |
|---|---|---|---|---|---|---|---|---|---|---|---|---|---|---|---|
| 03-Mai | 07:20 | n/a | 250° | 2 kt | Missing | 13° | 55° | 8° | 46° | 72% | 1012 mb | 41 ft | |||
| 03-Mai | 06:20 | n/a | Calm | Missing | 9° | 48° | 6° | 42° | 81% | 1012 mb | -439 ft | ||||
| 03-Mai | 05:20 | n/a | 120° | 1 kt | Missing | 9° | 48° | 6° | 42° | 81% | 1012 mb | -439 ft | |||
| 03-Mai | 04:20 | n/a | Calm | Missing | 12° | 53° | 7° | 44° | 71% | 1013 mb | -109 ft | ||||
| 03-Mai | 03:20 | n/a | 80° | 4 kt | Missing | 12° | 53° | 8° | 46° | 76% | 1013 mb | -109 ft | |||
| 03-Mai | 02:20 | n/a | 290° | 4 kt | Missing | 14° | 57° | 7° | 44° | 63% | 1014 mb | 102 ft | |||
| 03-Mai | 01:20 | n/a | 310° | 3 kt | Missing | 13° | 55° | 7° | 44° | 67% | 1014 mb | -18 ft | |||
| 03-Mai | 00:20 | n/a | 20° | 2 kt | Missing | 16° | 60° | 7° | 44° | 55% | 1014 mb | 342 ft | |||
| 02-Mai | 23:20 | n/a | 10° | 2 kt | Missing | 15° | 59° | 9° | 48° | 67% | 1014 mb | 222 ft | |||
| 02-Mai | 22:20 | n/a | Calm | Missing | 16° | 60° | 9° | 48° | 63% | 1014 mb | 342 ft | ||||
| 02-Mai | 21:20 | n/a | Calm | Missing | 18° | 64° | 8° | 46° | 52% | 1014 mb | 582 ft | ||||
| 02-Mai | 20:20 | n/a | 240° | 3 kt | Missing | 23° | 73° | 7° | 44° | 36% | 1014 mb | 1.182 ft | |||
| 02-Mai | 19:20 | n/a | 240° | 9 kt | Missing | 25° | 77° | 5° | 41° | 28% | 1014 mb | 1.422 ft | |||
| 02-Mai | 18:20 | n/a | 240° | 12 kt | Missing | 25° | 77° | 5° | 41° | 28% | 1015 mb | 1.392 ft | |||
| 02-Mai | 17:20 | n/a | 230° | 7 kt | Missing | 26° | 78° | 4° | 39° | 24% | 1015 mb | 1.512 ft | |||
| 02-Mai | 16:20 | n/a | 210° | 9 kt | Missing | 27° | 80° | 2° | 35° | 20% | 1016 mb | 1.603 ft | |||
| 02-Mai | 15:20 | n/a | 250° | 13 kt | Missing | 26° | 78° | 1° | 33° | 20% | 1016 mb | 1.483 ft | |||
| 02-Mai | 14:20 | n/a | 220° | 13 kt | Missing | 26° | 78° | 0° | 32° | 18% | 1017 mb | 1.453 ft | |||
| 02-Mai | 13:20 | n/a | 180° | 9 kt | Missing | 25° | 77° | 1° | 33° | 21% | 1018 mb | 1.303 ft | |||
| 02-Mai | 12:20 | n/a | 230° | 8 kt | Missing | 24° | 75° | 3° | 37° | 25% | 1018 mb | 1.183 ft | |||
| 02-Mai | 11:20 | n/a | 210° | 8 kt | Missing | 23° | 73° | 3° | 37° | 27% | 1019 mb | 1.034 ft | |||
| 02-Mai | 10:20 | n/a | 220° | 9 kt | Missing | 21° | 69° | 4° | 39° | 33% | 1020 mb | 764 ft | |||
| 02-Mai | 09:20 | n/a | 210° | 8 kt | Missing | 19° | 66° | 4° | 39° | 37% | 1020 mb | 524 ft | |||
| 02-Mai | 08:20 | n/a | 190° | 7 kt | Missing | 16° | 60° | 5° | 41° | 48% | 1020 mb | 164 ft |
Entrar
| Seu navegador não suporta. atualize seu navegador |
